This demonstration page uses our WeatherBlox Daily Observations layout. Learn more.

Left ArrowRight Arrow

44.8408, -93.29828

Hourly Observations for July 18, 2021

Temp ( °F °C ) Dew Point ( °F °C ) Humidity (%) Winds ( mph kmh ) Pressure ( in mb ) Visibility ( mi km ) Precip ( " mm )
12:53 am 00:53 Clear 74 23.3 57 13.9 56 56 Calm 30.18 1022 10 16 0.00 0.00
1:53 am 01:53 Clear 71 21.7 61 16.1 71 71 SE 3 6 30.19 1022 10 16 0.00 0.00
2:53 am 02:53 Clear 69 20.6 61 16.1 76 76 ESE 5 7 30.20 1023 10 16 0.00 0.00
3:53 am 03:53 Clear 69 20.6 61 16.1 76 76 SE 5 7 30.20 1023 10 16 0.00 0.00
4:53 am 04:53 Clear 67 19.4 60 15.6 79 79 ESE 3 6 30.21 1023 10 16 0.00 0.00
5:53 am 05:53 Sunny 67 19.4 61 16.1 81 81 Calm 30.23 1024 9 14 0.00 0.00
6:53 am 06:53 Mostly Sunny 68 20 62 16.7 81 81 SE 5 7 30.23 1024 8 13 0.00 0.00
7:53 am 07:53 Mostly Sunny 71 21.7 62 16.7 73 73 SSE 5 7 30.24 1024 9 14 0.00 0.00
8:53 am 08:53 Sunny 74 23.3 61 16.1 64 64 Calm 30.24 1024 10 16 0.00 0.00
9:53 am 09:53 Sunny 78 25.6 61 16.1 56 56 VRB 3 6 30.23 1024 10 16 0.00 0.00
10:53 am 10:53 Mostly Sunny 81 27.2 61 16.1 51 51 ENE 3 6 30.23 1024 10 16 0.00 0.00
11:53 am 11:53 Mostly Sunny 82 27.8 57 13.9 42 42 Calm 30.22 1023 10 16 0.00 0.00
12:53 pm 12:53 Mostly Sunny 85 29.4 55 12.8 36 36 ESE 5 7 30.21 1023 10 16 0.00 0.00
1:53 pm 13:53 Mostly Sunny 85 29.4 58 14.4 40 40 ENE 5 7 30.19 1022 10 16 0.00 0.00
2:53 pm 14:53 Mostly Sunny 87 30.6 57 13.9 36 36 SSW 6 9 30.19 1022 10 16 0.00 0.00
3:53 pm 15:53 Mostly Sunny 86 30 57 13.9 37 37 WSW 6 9 30.18 1022 10 16 0.00 0.00
4:53 pm 16:53 Mostly Sunny 87 30.6 57 13.9 36 36 SW 6 9 30.17 1022 10 16 0.00 0.00
5:53 pm 17:53 Mostly Sunny 86 30 58 14.4 39 39 S 8 13 30.16 1022 10 16 0.00 0.00
6:53 pm 18:53 Mostly Sunny 85 29.4 57 13.9 39 39 VRB 6 9 30.16 1021 10 16 0.00 0.00
7:53 pm 19:53 Mostly Sunny 84 28.9 59 15 43 43 S 7 11 30.16 1021 10 16 0.00 0.00
8:53 pm 20:53 Mostly Sunny 81 27.2 61 16.1 51 51 S 8 13 30.16 1021 10 16 0.00 0.00
9:53 pm 21:53 Clear 79 26.1 61 16.1 54 54 SSE 5 7 30.18 1022 10 16 0.00 0.00
10:53 pm 22:53 Clear 76 24.4 62 16.7 62 62 SE 6 9 30.18 1022 10 16 0.00 0.00
11:53 pm 23:53 Clear 74 23.3 63 17.2 69 69 SSE 5 7 30.19 1022 10 16 0.00 0.00

Powered by AerisWeather